AFL1405 ULLI-UIII

Flight info

Callsign AFL1405
Flight time N/A
Altitude 35000
Route KERIS1A KERIS P989 LUPOK L260 ROLUG T635 SADER T580 LITUN N869 KUMOD R497 UTIMA/K0846F370 R497 RO A817 RUSAM G490 NH NH5B
Aircraft A320/M-SDE3FGHIRWY/LB1

Departure

Time N/A
Airport Pulkovo Airport (ULLI)

Arrival

Time 2026-05-05 14:45
Airport Irkutsk International Airport (UIII)
Time Latitude Longitude Altitude Speed Heading
2026-05-05 09:46 59.82412 32.13778 22355 ft 509 kts 97°
2026-05-05 09:46 59.82107 32.20805 22640 ft 511 kts 97°
2026-05-05 09:47 59.81866 32.27871 22909 ft 515 kts 92°
2026-05-05 09:47 59.82052 32.35001 23182 ft 519 kts 84°
2026-05-05 09:47 59.82735 32.42068 23349 ft 523 kts 75°
2026-05-05 09:47 59.83754 32.49044 23470 ft 528 kts 73°
2026-05-05 09:48 59.84785 32.56079 23645 ft 530 kts 74°
2026-05-05 09:48 59.85803 32.63120 23922 ft 530 kts 74°
2026-05-05 09:48 59.86808 32.70162 24198 ft 528 kts 74°
2026-05-05 09:48 59.87802 32.77194 24569 ft 526 kts 75°
2026-05-05 09:49 59.88785 32.84190 24918 ft 524 kts 75°
2026-05-05 09:49 59.89765 32.91171 25249 ft 523 kts 75°
2026-05-05 09:49 59.90749 32.98150 25568 ft 523 kts 74°
2026-05-05 09:49 59.91739 33.05148 25841 ft 524 kts 74°
2026-05-05 09:50 59.92720 33.12135 26150 ft 523 kts 75°
2026-05-05 09:50 59.93693 33.19120 26465 ft 523 kts 75°
2026-05-05 09:50 59.94651 33.26018 26797 ft 522 kts 75°
2026-05-05 09:50 59.95616 33.32991 27121 ft 521 kts 75°
2026-05-05 09:51 59.96577 33.39958 27462 ft 520 kts 75°
2026-05-05 09:51 59.97535 33.46932 27787 ft 520 kts 75°
2026-05-05 09:51 59.98486 33.53890 28126 ft 519 kts 75°
2026-05-05 09:51 59.99430 33.60841 28468 ft 518 kts 75°
2026-05-05 09:52 60.00369 33.67787 28757 ft 517 kts 75°
2026-05-05 09:52 60.01301 33.74715 29237 ft 514 kts 75°
2026-05-05 09:52 60.02223 33.81586 29597 ft 512 kts 75°
2026-05-05 09:52 60.03145 33.88476 29908 ft 512 kts 75°
2026-05-05 09:53 60.04057 33.95350 30178 ft 511 kts 75°
2026-05-05 09:53 60.04964 34.02220 30449 ft 511 kts 75°
2026-05-05 09:53 60.05866 34.09088 30721 ft 510 kts 75°
2026-05-05 09:53 60.06759 34.15953 30990 ft 509 kts 75°
2026-05-05 09:54 60.07652 34.22825 31268 ft 509 kts 75°
2026-05-05 09:54 60.08543 34.29675 31542 ft 508 kts 75°
2026-05-05 09:54 60.09430 34.36533 31815 ft 507 kts 76°
2026-05-05 09:54 60.10309 34.43375 32083 ft 507 kts 76°
2026-05-05 09:55 60.11187 34.50225 32354 ft 506 kts 76°
2026-05-05 09:55 60.12061 34.57059 32621 ft 506 kts 76°
2026-05-05 09:55 60.12935 34.63900 32899 ft 505 kts 76°
2026-05-05 09:55 60.13803 34.70737 33142 ft 505 kts 76°
2026-05-05 09:56 60.14651 34.77467 33412 ft 504 kts 76°
2026-05-05 09:56 60.15500 34.84289 33675 ft 504 kts 76°
2026-05-05 09:56 60.16344 34.91105 33904 ft 503 kts 76°
2026-05-05 09:56 60.17190 34.97931 34121 ft 502 kts 76°
2026-05-05 09:57 60.18029 35.04741 34343 ft 502 kts 76°
2026-05-05 09:57 60.18863 35.11549 34544 ft 502 kts 76°
2026-05-05 09:57 60.19688 35.18360 34700 ft 502 kts 76°
2026-05-05 09:57 60.20512 35.25217 34741 ft 506 kts 76°
2026-05-05 09:58 60.22177 35.38981 34744 ft 509 kts 76°
2026-05-05 09:58 60.23865 35.52845 34737 ft 510 kts 76°
2026-05-05 09:59 60.25544 35.66742 34728 ft 510 kts 76°
2026-05-05 09:59 60.27189 35.80634 34741 ft 509 kts 77°
2026-05-05 10:00 60.28804 35.94431 34733 ft 509 kts 77°
2026-05-05 10:00 60.30421 36.08327 34733 ft 509 kts 77°
2026-05-05 10:01 60.32023 36.22236 34756 ft 509 kts 77°
2026-05-05 10:01 60.33618 36.36178 34722 ft 510 kts 77°
2026-05-05 10:02 60.35203 36.50143 34719 ft 511 kts 77°
2026-05-05 10:02 60.36768 36.64158 34713 ft 511 kts 77°
2026-05-05 10:03 60.38315 36.78199 34691 ft 511 kts 77°
2026-05-05 10:03 60.39848 36.92261 34704 ft 511 kts 77°
2026-05-05 10:04 60.41369 37.06286 34728 ft 511 kts 78°
2026-05-05 10:04 60.42871 37.20271 34714 ft 512 kts 78°
2026-05-05 10:05 60.44363 37.34366 34712 ft 512 kts 78°
2026-05-05 10:05 60.45840 37.48499 34705 ft 513 kts 78°
2026-05-05 10:06 60.47072 37.60350 34703 ft 513 kts 78°
2026-05-05 10:06 60.48571 37.74399 34698 ft 513 kts 78°
2026-05-05 10:07 60.50079 37.88521 34715 ft 511 kts 78°
2026-05-05 10:07 60.51545 38.02617 34726 ft 510 kts 78°
2026-05-05 10:08 60.52986 38.16731 34716 ft 510 kts 78°
2026-05-05 10:08 60.54413 38.30849 34716 ft 510 kts 78°
2026-05-05 10:09 60.55842 38.44953 34708 ft 510 kts 78°
2026-05-05 10:09 60.57246 38.58986 34707 ft 509 kts 78°
2026-05-05 10:10 60.58632 38.73115 34732 ft 510 kts 79°
2026-05-05 10:10 60.59996 38.87283 34691 ft 510 kts 79°
2026-05-05 10:11 60.61268 39.01487 34703 ft 509 kts 80°
2026-05-05 10:11 60.62452 39.15718 34708 ft 509 kts 81°
2026-05-05 10:12 60.63620 39.29942 34707 ft 509 kts 80°
2026-05-05 10:12 60.64801 39.44176 34708 ft 509 kts 81°
2026-05-05 10:13 60.65964 39.58350 34720 ft 509 kts 81°
2026-05-05 10:13 60.67118 39.72589 34712 ft 509 kts 81°
2026-05-05 10:14 60.68253 39.86869 34708 ft 509 kts 81°
2026-05-05 10:14 60.69375 40.01119 34695 ft 509 kts 81°
2026-05-05 10:15 60.70487 40.15399 34696 ft 508 kts 81°
2026-05-05 10:15 60.71584 40.29570 34708 ft 508 kts 81°
2026-05-05 10:16 60.72667 40.43828 34726 ft 508 kts 81°
2026-05-05 10:16 60.73735 40.58127 34701 ft 508 kts 81°
2026-05-05 10:17 60.74775 40.72434 34693 ft 508 kts 82°
2026-05-05 10:17 60.75799 40.86754 34686 ft 509 kts 82°
2026-05-05 10:18 60.76810 41.01068 34670 ft 508 kts 82°
2026-05-05 10:18 60.77809 41.15304 34679 ft 508 kts 82°
2026-05-05 10:19 60.78789 41.29607 34684 ft 507 kts 82°
2026-05-05 10:19 60.79752 41.43929 34694 ft 507 kts 82°
2026-05-05 10:20 60.80349 41.58312 34678 ft 506 kts 92°
2026-05-05 10:20 60.80195 41.72731 34672 ft 507 kts 92°
2026-05-05 10:21 60.80025 41.87182 34669 ft 507 kts 92°
2026-05-05 10:21 60.79837 42.01505 34645 ft 506 kts 92°
2026-05-05 10:22 60.79640 42.15905 34659 ft 506 kts 92°
2026-05-05 10:22 60.79430 42.30293 34665 ft 505 kts 92°
2026-05-05 10:23 60.79205 42.44689 34674 ft 506 kts 92°
2026-05-05 10:23 60.78962 42.59068 34666 ft 505 kts 93°
2026-05-05 10:24 60.78697 42.73472 34662 ft 505 kts 93°
2026-05-05 10:24 60.78415 42.87843 34638 ft 505 kts 93°
2026-05-05 10:25 60.78124 43.02203 34656 ft 504 kts 93°
2026-05-05 10:25 60.77826 43.16434 34661 ft 504 kts 93°
2026-05-05 10:26 60.77511 43.30746 34658 ft 503 kts 93°
2026-05-05 10:26 60.77169 43.45060 34656 ft 503 kts 94°
2026-05-05 10:27 60.76808 43.59370 34647 ft 503 kts 94°
2026-05-05 10:27 60.76445 43.73656 34618 ft 503 kts 93°
2026-05-05 10:28 60.76070 43.87942 34637 ft 502 kts 94°
2026-05-05 10:28 60.75676 44.02107 34651 ft 501 kts 94°
2026-05-05 10:29 60.75265 44.16319 34650 ft 501 kts 94°
2026-05-05 10:29 60.74825 44.30515 34643 ft 500 kts 94°
2026-05-05 10:30 60.74365 44.44713 34678 ft 500 kts 94°
2026-05-05 10:30 60.73905 44.58933 34651 ft 501 kts 94°
2026-05-05 10:31 60.73441 44.73147 34641 ft 501 kts 95°
2026-05-05 10:31 60.72960 44.87364 34627 ft 501 kts 95°
2026-05-05 10:32 60.72459 45.01484 34626 ft 501 kts 95°
2026-05-05 10:32 60.72337 45.15714 34625 ft 501 kts 85°
2026-05-05 10:33 60.72931 45.29924 34616 ft 502 kts 85°
2026-05-05 10:33 60.73501 45.44145 34634 ft 502 kts 85°
2026-05-05 10:34 60.74056 45.58286 34582 ft 502 kts 85°
2026-05-05 10:34 60.74594 45.72506 34610 ft 501 kts 85°
2026-05-05 10:35 60.75120 45.86710 34622 ft 500 kts 85°
2026-05-05 10:35 60.75627 46.00903 34623 ft 500 kts 86°
2026-05-05 10:36 60.76116 46.15092 34621 ft 500 kts 86°
2026-05-05 10:36 60.76582 46.29198 34621 ft 499 kts 86°
2026-05-05 10:37 60.77017 46.43382 34630 ft 500 kts 86°
2026-05-05 10:37 60.77364 46.57605 34621 ft 500 kts 87°
2026-05-05 10:38 60.77690 46.71803 34598 ft 499 kts 87°
2026-05-05 10:38 60.78040 46.86001 34614 ft 499 kts 87°
2026-05-05 10:39 60.78386 47.00189 34622 ft 499 kts 87°
2026-05-05 10:39 60.78712 47.14358 34614 ft 498 kts 88°
2026-05-05 10:40 60.79010 47.28527 34643 ft 498 kts 88°
2026-05-05 10:40 60.79292 47.42696 34625 ft 498 kts 88°
2026-05-05 10:41 60.79573 47.56867 34630 ft 498 kts 88°
2026-05-05 10:41 60.79840 47.70977 34600 ft 498 kts 88°
2026-05-05 10:42 60.80194 47.92279 34598 ft 499 kts 89°
2026-05-05 10:43 60.80417 48.06491 34612 ft 499 kts 89°
2026-05-05 10:43 60.80620 48.20632 34620 ft 499 kts 89°
2026-05-05 10:44 60.80811 48.34850 34618 ft 500 kts 89°
2026-05-05 10:44 60.81001 48.49086 34619 ft 500 kts 89°
2026-05-05 10:45 60.81183 48.63310 34619 ft 500 kts 89°
2026-05-05 10:45 60.81345 48.77540 34585 ft 500 kts 90°
2026-05-05 10:46 60.81486 48.91797 34593 ft 501 kts 90°
2026-05-05 10:46 60.81617 49.06102 34609 ft 502 kts 90°
2026-05-05 10:47 60.81738 49.20309 34605 ft 502 kts 90°
2026-05-05 10:47 60.81840 49.34628 34613 ft 503 kts 90°
2026-05-05 10:48 60.81941 49.48958 34613 ft 503 kts 90°
2026-05-05 10:48 60.82028 49.63291 34611 ft 503 kts 90°
2026-05-05 10:49 60.82081 49.77642 34614 ft 503 kts 91°
2026-05-05 10:49 60.82110 49.91997 34614 ft 504 kts 91°
2026-05-05 10:50 60.82147 50.06374 34612 ft 505 kts 91°
2026-05-05 10:50 60.82175 50.20756 34613 ft 505 kts 91°
2026-05-05 10:51 60.82185 50.35149 34622 ft 505 kts 91°
2026-05-05 10:51 60.82170 50.49561 34624 ft 505 kts 91°
2026-05-05 10:52 60.82145 50.63880 34626 ft 505 kts 92°
2026-05-05 10:52 60.82101 50.78282 34643 ft 506 kts 92°
2026-05-05 10:53 60.82042 50.92702 34599 ft 506 kts 92°
2026-05-05 10:53 60.81972 51.07116 34622 ft 505 kts 92°
2026-05-05 10:54 60.81896 51.19170 34639 ft 505 kts 92°
2026-05-05 10:54 60.81797 51.33491 34644 ft 505 kts 92°
2026-05-05 10:55 60.81695 51.47890 34648 ft 505 kts 92°
2026-05-05 10:55 60.81587 51.62288 34656 ft 505 kts 92°
2026-05-05 10:56 60.81464 51.76681 34663 ft 505 kts 92°
2026-05-05 10:56 60.81319 51.91001 34658 ft 505 kts 92°
2026-05-05 10:57 60.81155 52.05402 34631 ft 505 kts 92°
2026-05-05 10:57 60.80972 52.19786 34646 ft 505 kts 93°
2026-05-05 10:58 60.80772 52.34145 34659 ft 504 kts 93°
2026-05-05 10:58 60.80564 52.48495 34673 ft 504 kts 93°
2026-05-05 10:59 60.80346 52.62851 34673 ft 504 kts 93°
2026-05-05 10:59 60.80116 52.77216 34675 ft 504 kts 93°
2026-05-05 11:00 60.79863 52.91454 34678 ft 504 kts 94°
2026-05-05 11:00 60.79594 53.05781 34646 ft 504 kts 94°
2026-05-05 11:01 60.79306 53.20125 34664 ft 503 kts 94°
2026-05-05 11:01 60.79011 53.34430 34681 ft 503 kts 94°
2026-05-05 11:02 60.78697 53.48728 34697 ft 503 kts 94°
2026-05-05 11:02 60.78355 53.63031 34693 ft 503 kts 94°
2026-05-05 11:03 60.78002 53.77248 34699 ft 503 kts 94°
2026-05-05 11:03 60.77633 53.91530 34694 ft 503 kts 94°
2026-05-05 11:04 60.77251 54.05823 34695 ft 503 kts 94°
2026-05-05 11:04 60.76851 54.20092 34680 ft 502 kts 94°
2026-05-05 11:05 60.76426 54.34346 34714 ft 501 kts 94°
2026-05-05 11:05 60.75994 54.48572 34716 ft 501 kts 94°
2026-05-05 11:06 60.75561 54.62815 34722 ft 501 kts 95°
2026-05-05 11:06 60.75099 54.77033 34720 ft 501 kts 95°
2026-05-05 11:07 60.74616 54.91134 34721 ft 501 kts 95°
2026-05-05 11:07 60.74125 55.05324 34724 ft 501 kts 95°
2026-05-05 11:08 60.73623 55.19620 34739 ft 501 kts 95°
2026-05-05 11:08 60.73107 55.33709 34730 ft 501 kts 95°
2026-05-05 11:09 60.72569 55.47904 34731 ft 501 kts 95°
2026-05-05 11:09 60.72011 55.62083 34731 ft 501 kts 95°
2026-05-05 11:10 60.71437 55.76260 34733 ft 501 kts 96°
2026-05-05 11:10 60.70843 55.90460 34735 ft 501 kts 96°
2026-05-05 11:11 60.70226 56.04626 34735 ft 501 kts 96°
2026-05-05 11:11 60.69589 56.18798 34749 ft 501 kts 96°
2026-05-05 11:12 60.68941 56.32871 34747 ft 500 kts 96°
2026-05-05 11:12 60.68282 56.46966 34759 ft 499 kts 96°
2026-05-05 11:13 60.67613 56.61056 34767 ft 498 kts 96°
2026-05-05 11:13 60.66933 56.75099 34776 ft 497 kts 96°
2026-05-05 11:14 60.66232 56.89140 34770 ft 497 kts 96°
2026-05-05 11:14 60.65519 57.03156 34781 ft 497 kts 96°
2026-05-05 11:15 60.64795 57.17168 34784 ft 497 kts 96°
2026-05-05 11:15 60.64051 57.31165 34756 ft 497 kts 97°
2026-05-05 11:16 60.63278 57.45129 34774 ft 495 kts 97°
2026-05-05 11:16 60.62513 57.59072 34784 ft 495 kts 97°
2026-05-05 11:17 60.61771 57.72906 34789 ft 494 kts 96°
2026-05-05 11:17 60.61011 57.86817 34805 ft 494 kts 97°
2026-05-05 11:18 60.60218 58.00700 34804 ft 494 kts 97°
2026-05-05 11:18 60.59415 58.14575 34797 ft 494 kts 97°
2026-05-05 11:19 60.58600 58.28455 34792 ft 494 kts 97°
2026-05-05 11:19 60.57769 58.42317 34783 ft 493 kts 97°
2026-05-05 11:20 60.56931 58.56057 34797 ft 492 kts 97°
2026-05-05 11:20 60.56073 58.69950 34821 ft 492 kts 97°
2026-05-05 11:21 60.55202 58.83732 34813 ft 492 kts 97°
2026-05-05 11:21 60.54320 58.97426 34806 ft 492 kts 97°
2026-05-05 11:22 60.53421 59.11207 34803 ft 492 kts 97°
2026-05-05 11:22 60.52507 59.24983 34806 ft 492 kts 98°
2026-05-05 11:23 60.51580 59.38739 34807 ft 492 kts 98°
2026-05-05 11:23 60.50639 59.52481 34800 ft 492 kts 97°
2026-05-05 11:24 60.49679 59.66221 34826 ft 491 kts 97°
2026-05-05 11:24 60.48705 59.79931 34833 ft 491 kts 97°
2026-05-05 11:25 60.47729 59.93633 34831 ft 491 kts 98°
2026-05-05 11:25 60.46741 60.07335 34839 ft 491 kts 98°
2026-05-05 11:26 60.45731 60.21013 34837 ft 491 kts 98°
2026-05-05 11:26 60.44703 60.34694 34836 ft 491 kts 98°
2026-05-05 11:27 60.43661 60.48378 34839 ft 490 kts 98°
2026-05-05 11:27 60.42623 60.61915 34851 ft 489 kts 98°
2026-05-05 11:28 60.41558 60.75523 34853 ft 489 kts 98°
2026-05-05 11:28 60.40480 60.89106 34859 ft 488 kts 98°
2026-05-05 11:29 60.39400 61.02676 34857 ft 488 kts 98°
2026-05-05 11:29 60.38301 61.16216 34861 ft 488 kts 98°
2026-05-05 11:30 60.37179 61.29741 34860 ft 488 kts 99°
2026-05-05 11:30 60.36049 61.43270 34855 ft 488 kts 99°
2026-05-05 11:31 60.34912 61.56776 34858 ft 488 kts 99°
2026-05-05 11:31 60.33767 61.70177 34867 ft 487 kts 99°
2026-05-05 11:32 60.32593 61.83646 34868 ft 487 kts 99°
2026-05-05 11:32 60.31420 61.97102 34867 ft 486 kts 99°
2026-05-05 11:33 60.30228 62.10543 34880 ft 486 kts 99°
2026-05-05 11:33 60.29029 62.23962 34880 ft 486 kts 99°
2026-05-05 11:34 60.27834 62.37391 34875 ft 486 kts 99°
2026-05-05 11:34 60.26637 62.50729 34874 ft 486 kts 99°
2026-05-05 11:35 60.25412 62.64114 34878 ft 486 kts 99°
2026-05-05 11:35 60.24181 62.77490 34882 ft 485 kts 99°
2026-05-05 11:36 60.22929 62.90844 34885 ft 485 kts 100°
2026-05-05 11:36 60.21657 63.04181 34897 ft 485 kts 100°
2026-05-05 11:37 60.20382 63.17509 34894 ft 485 kts 100°
2026-05-05 11:37 60.19105 63.30831 34890 ft 485 kts 100°
2026-05-05 11:38 60.17821 63.44132 34887 ft 485 kts 100°
2026-05-05 11:38 60.16519 63.57342 34880 ft 485 kts 100°
2026-05-05 11:39 60.15189 63.70604 34895 ft 484 kts 100°
2026-05-05 11:39 60.13847 63.83832 34915 ft 483 kts 101°
2026-05-05 11:40 60.12989 63.97139 34908 ft 480 kts 89°
2026-05-05 11:40 60.12869 64.08296 34903 ft 481 kts 90°
2026-05-05 11:41 60.12698 64.21694 34898 ft 481 kts 90°
2026-05-05 11:41 60.12509 64.35104 34896 ft 481 kts 90°
2026-05-05 11:42 60.12312 64.48526 34897 ft 481 kts 90°
2026-05-05 11:42 60.12096 64.61847 34903 ft 481 kts 90°
2026-05-05 11:43 60.11866 64.75260 34902 ft 481 kts 90°
2026-05-05 11:43 60.11577 64.88668 34898 ft 481 kts 92°
2026-05-05 11:44 60.11019 65.02028 34906 ft 480 kts 94°
2026-05-05 11:44 60.10331 65.15331 34910 ft 480 kts 95°
2026-05-05 11:45 60.09682 65.28637 34909 ft 479 kts 94°
2026-05-05 11:45 60.09082 65.41942 34913 ft 479 kts 94°
2026-05-05 11:46 60.08473 65.55151 34906 ft 479 kts 94°
2026-05-05 11:46 60.07827 65.68453 34905 ft 479 kts 95°
2026-05-05 11:47 60.07166 65.81738 34901 ft 479 kts 95°
2026-05-05 11:47 60.06492 65.95031 34901 ft 479 kts 95°
2026-05-05 11:48 60.05463 66.14861 34914 ft 479 kts 95°
2026-05-05 11:48 60.04762 66.28131 34902 ft 480 kts 95°
2026-05-05 11:49 60.04047 66.41423 34901 ft 480 kts 95°
2026-05-05 11:49 60.03314 66.54705 34898 ft 481 kts 95°
2026-05-05 11:50 60.02553 66.68011 34900 ft 481 kts 95°
2026-05-05 11:50 60.01787 66.81228 34902 ft 481 kts 96°
2026-05-05 11:51 60.01009 66.94507 34900 ft 481 kts 96°
2026-05-05 11:51 60.00213 67.07792 34895 ft 482 kts 96°
2026-05-05 11:52 59.99406 67.21105 34894 ft 482 kts 96°
2026-05-05 11:52 59.98585 67.34405 34897 ft 482 kts 96°
2026-05-05 11:53 59.97750 67.47692 34895 ft 481 kts 97°
2026-05-05 11:53 59.96894 67.60862 34903 ft 481 kts 97°
2026-05-05 11:54 59.96011 67.74110 34911 ft 481 kts 97°
2026-05-05 11:54 59.95125 67.87357 34905 ft 481 kts 97°
2026-05-05 11:55 59.94240 68.00593 34897 ft 481 kts 97°
2026-05-05 11:55 59.93344 68.13839 34900 ft 482 kts 97°
2026-05-05 11:56 59.92432 68.27067 34900 ft 482 kts 98°
2026-05-05 11:56 59.91503 68.40215 34902 ft 482 kts 98°
2026-05-05 11:57 59.90556 68.53438 34894 ft 482 kts 98°
2026-05-05 11:57 59.89599 68.66684 34880 ft 483 kts 98°
2026-05-05 11:58 59.88619 68.79944 34871 ft 484 kts 98°
2026-05-05 11:58 59.87621 68.93216 34876 ft 485 kts 98°
2026-05-05 11:59 59.86612 69.06515 34880 ft 486 kts 98°
2026-05-05 11:59 59.85598 69.19808 34883 ft 486 kts 98°
2026-05-05 12:00 59.84563 69.33098 34883 ft 486 kts 99°
2026-05-05 12:00 59.83520 69.46319 34886 ft 487 kts 99°
2026-05-05 12:01 59.82452 69.59612 34889 ft 487 kts 99°
2026-05-05 12:01 59.81376 69.72897 34892 ft 487 kts 99°
2026-05-05 12:02 59.80298 69.86171 34891 ft 487 kts 99°
2026-05-05 12:02 59.79209 69.99373 34869 ft 487 kts 100°
2026-05-05 12:03 59.78091 70.12668 34867 ft 488 kts 100°
2026-05-05 12:03 59.76988 70.25992 34867 ft 489 kts 100°
2026-05-05 12:04 59.75865 70.39309 34870 ft 490 kts 100°
2026-05-05 12:04 59.74701 70.52627 34873 ft 490 kts 101°
2026-05-05 12:05 59.73517 70.65938 34886 ft 490 kts 101°
2026-05-05 12:05 59.72325 70.79246 34875 ft 491 kts 101°
2026-05-05 12:06 59.71132 70.92485 34876 ft 491 kts 101°
2026-05-05 12:06 59.69923 71.05821 34878 ft 492 kts 101°
2026-05-05 12:07 59.68690 71.19142 34853 ft 492 kts 101°
2026-05-05 12:07 59.67435 71.32467 34864 ft 492 kts 101°
2026-05-05 12:08 59.66172 71.45791 34876 ft 493 kts 102°
2026-05-05 12:08 59.64900 71.59119 34874 ft 494 kts 102°
2026-05-05 12:09 59.63609 71.72456 34878 ft 494 kts 102°
2026-05-05 12:09 59.62304 71.85804 34879 ft 494 kts 102°
2026-05-05 12:10 59.60989 71.99142 34876 ft 494 kts 102°
2026-05-05 12:10 59.59669 72.12383 34877 ft 494 kts 102°
2026-05-05 12:11 59.58315 72.25726 34881 ft 496 kts 102°
2026-05-05 12:11 59.56941 72.39074 34880 ft 496 kts 102°
2026-05-05 12:12 59.55565 72.52433 34858 ft 497 kts 103°
2026-05-05 12:12 59.54174 72.65792 34866 ft 497 kts 103°
2026-05-05 12:13 59.52771 72.79070 34871 ft 497 kts 103°
2026-05-05 12:13 59.51342 72.92404 34877 ft 498 kts 103°
2026-05-05 12:14 59.49897 73.05769 34871 ft 499 kts 103°
2026-05-05 12:14 59.48442 73.19165 34872 ft 500 kts 103°
2026-05-05 12:15 59.46974 73.32554 34876 ft 501 kts 104°
2026-05-05 12:15 59.45484 73.45943 34880 ft 501 kts 104°
2026-05-05 12:16 59.43980 73.59308 34881 ft 501 kts 104°
2026-05-05 12:16 59.42477 73.72592 34860 ft 502 kts 104°
2026-05-05 12:17 59.40942 73.85980 34863 ft 502 kts 104°
2026-05-05 12:17 59.39397 73.99358 34865 ft 503 kts 104°
2026-05-05 12:18 59.37838 74.12750 34869 ft 503 kts 104°
2026-05-05 12:18 59.36254 74.26138 34875 ft 504 kts 105°
2026-05-05 12:19 59.34663 74.39520 34876 ft 504 kts 105°
2026-05-05 12:19 59.33065 74.52832 34870 ft 505 kts 104°
2026-05-05 12:20 59.31611 74.66316 34867 ft 506 kts 103°
2026-05-05 12:20 59.30262 74.79845 34868 ft 507 kts 102°
2026-05-05 12:21 59.28865 74.93358 34836 ft 507 kts 104°
2026-05-05 12:21 59.27408 75.06858 34864 ft 507 kts 104°
2026-05-05 12:22 59.25927 75.20353 34857 ft 508 kts 104°
2026-05-05 12:22 59.24435 75.33866 34859 ft 509 kts 104°
2026-05-05 12:23 59.22940 75.47390 34860 ft 510 kts 104°
2026-05-05 12:23 59.21426 75.60925 34866 ft 510 kts 104°
2026-05-05 12:24 59.19893 75.74451 34869 ft 510 kts 104°
2026-05-05 12:24 59.18343 75.87883 34867 ft 511 kts 104°
2026-05-05 12:25 59.16774 76.01436 34862 ft 512 kts 104°
2026-05-05 12:25 59.15199 76.14967 34861 ft 512 kts 104°
2026-05-05 12:26 59.13596 76.28497 34843 ft 513 kts 105°
2026-05-05 12:26 59.11973 76.42043 34849 ft 514 kts 105°
2026-05-05 12:27 59.10610 76.53298 34852 ft 514 kts 105°
2026-05-05 12:27 59.08969 76.66842 34859 ft 514 kts 105°
2026-05-05 12:28 59.07321 76.80391 34866 ft 514 kts 105°
2026-05-05 12:28 59.05665 76.93923 34872 ft 514 kts 105°
2026-05-05 12:29 59.03985 77.07438 34876 ft 514 kts 105°
2026-05-05 12:29 59.02283 77.20937 34880 ft 515 kts 105°
2026-05-05 12:30 59.00578 77.34368 34869 ft 515 kts 105°
2026-05-05 12:30 58.98859 77.47872 34826 ft 516 kts 106°
2026-05-05 12:31 58.97115 77.61400 34840 ft 518 kts 106°
2026-05-05 12:31 58.95356 77.74936 34846 ft 519 kts 106°
2026-05-05 12:32 58.93574 77.88496 34863 ft 519 kts 106°
2026-05-05 12:32 58.91772 78.02056 34867 ft 521 kts 106°
2026-05-05 12:33 58.90864 78.08848 35075 ft 521 kts 106°
2026-05-05 12:33 58.89954 78.15635 35352 ft 520 kts 106°
2026-05-05 12:33 58.89046 78.22387 35630 ft 518 kts 106°
2026-05-05 12:33 58.88139 78.29120 35900 ft 516 kts 106°
2026-05-05 12:34 58.87227 78.35835 36158 ft 515 kts 106°
2026-05-05 12:34 58.86314 78.42526 36414 ft 513 kts 106°
2026-05-05 12:34 58.85401 78.49182 36666 ft 512 kts 106°
2026-05-05 12:34 58.84498 78.55730 36858 ft 511 kts 105°
2026-05-05 12:35 58.82663 78.68985 36864 ft 510 kts 105°
2026-05-05 12:35 58.80818 78.82210 36866 ft 510 kts 106°
2026-05-05 12:36 58.78960 78.95404 36866 ft 510 kts 106°
2026-05-05 12:36 58.77092 79.08586 36865 ft 510 kts 106°
2026-05-05 12:37 58.75210 79.21755 36868 ft 510 kts 106°
2026-05-05 12:37 58.73303 79.34918 36875 ft 511 kts 106°
2026-05-05 12:38 58.71395 79.48014 36874 ft 511 kts 106°
2026-05-05 12:38 58.69463 79.61180 36875 ft 511 kts 107°
2026-05-05 12:39 58.67818 79.74484 36879 ft 511 kts 100°
2026-05-05 12:39 58.66528 79.87942 36880 ft 511 kts 101°
2026-05-05 12:40 58.65203 80.01285 36873 ft 512 kts 101°
2026-05-05 12:40 58.63863 80.14708 36861 ft 512 kts 101°
2026-05-05 12:41 58.62524 80.28152 36866 ft 513 kts 101°
2026-05-05 12:41 58.61160 80.41577 36869 ft 513 kts 101°
2026-05-05 12:42 58.59769 80.55004 36874 ft 513 kts 101°
2026-05-05 12:42 58.58345 80.68416 36887 ft 513 kts 101°
2026-05-05 12:43 58.56916 80.81824 36882 ft 513 kts 101°
2026-05-05 12:43 58.55498 80.95219 36881 ft 513 kts 101°
2026-05-05 12:44 58.54064 81.08615 36879 ft 513 kts 101°
2026-05-05 12:44 58.52629 81.21912 36880 ft 513 kts 101°
2026-05-05 12:45 58.51170 81.35299 36895 ft 513 kts 101°
2026-05-05 12:45 58.49693 81.48649 36887 ft 513 kts 101°
2026-05-05 12:46 58.48198 81.62019 36857 ft 513 kts 101°
2026-05-05 12:46 58.46691 81.75345 36863 ft 513 kts 102°
2026-05-05 12:47 58.45170 81.88662 36881 ft 513 kts 102°
2026-05-05 12:47 58.43638 82.01964 36882 ft 513 kts 102°
2026-05-05 12:48 58.42090 82.15251 36883 ft 513 kts 102°
2026-05-05 12:48 58.40531 82.28546 36887 ft 513 kts 102°
2026-05-05 12:49 58.38972 82.41748 36884 ft 513 kts 102°
2026-05-05 12:49 58.37379 82.55016 36903 ft 513 kts 102°
2026-05-05 12:50 58.35769 82.68286 36902 ft 513 kts 102°
2026-05-05 12:50 58.34158 82.81519 36897 ft 512 kts 102°
2026-05-05 12:51 58.32432 82.94684 36890 ft 513 kts 108°
2026-05-05 12:51 58.30021 83.07354 36882 ft 512 kts 110°
2026-05-05 12:52 58.27568 83.20098 36874 ft 513 kts 110°
2026-05-05 12:52 58.25108 83.32809 36879 ft 513 kts 110°
2026-05-05 12:53 58.22632 83.45532 36881 ft 513 kts 110°
2026-05-05 12:53 58.20140 83.58239 36886 ft 513 kts 110°
2026-05-05 12:54 58.16408 83.77156 36889 ft 513 kts 110°
2026-05-05 12:55 58.13883 83.89827 36911 ft 513 kts 110°
2026-05-05 12:55 58.11346 84.02457 36910 ft 513 kts 110°
2026-05-05 12:56 58.08804 84.15053 36903 ft 513 kts 110°
2026-05-05 12:56 58.06246 84.27641 36873 ft 513 kts 110°
2026-05-05 12:57 58.03670 84.40231 36882 ft 513 kts 111°
2026-05-05 12:57 58.01099 84.52725 36912 ft 514 kts 110°
2026-05-05 12:58 57.98504 84.65285 36916 ft 514 kts 111°
2026-05-05 12:58 57.95898 84.77852 36916 ft 514 kts 111°
2026-05-05 12:59 57.93276 84.90364 36917 ft 514 kts 111°
2026-05-05 12:59 57.90644 85.02801 36916 ft 514 kts 111°
2026-05-05 13:00 57.86665 85.21527 36934 ft 514 kts 111°
2026-05-05 13:01 57.81360 85.46414 36921 ft 513 kts 111°
2026-05-05 13:01 57.78677 85.58860 36923 ft 514 kts 111°
2026-05-05 13:02 57.75988 85.71177 36929 ft 514 kts 111°
2026-05-05 13:02 57.73266 85.83560 36947 ft 514 kts 111°
2026-05-05 13:03 57.70542 85.95906 36945 ft 512 kts 111°
2026-05-05 13:03 57.67807 86.08211 36945 ft 512 kts 111°
2026-05-05 13:04 57.65059 86.20471 36947 ft 511 kts 112°
2026-05-05 13:04 57.62300 86.32700 36946 ft 511 kts 112°
2026-05-05 13:05 57.59556 86.44908 36937 ft 510 kts 112°
2026-05-05 13:05 57.56815 86.57006 36940 ft 510 kts 112°
2026-05-05 13:06 57.54050 86.69167 36949 ft 509 kts 112°
2026-05-05 13:06 57.51254 86.81309 36949 ft 510 kts 112°
2026-05-05 13:07 57.48446 86.93406 36947 ft 510 kts 112°
2026-05-05 13:07 57.45636 87.05486 36968 ft 509 kts 112°
2026-05-05 13:08 57.42820 87.17535 36959 ft 508 kts 112°
2026-05-05 13:08 57.40005 87.29583 36960 ft 508 kts 112°
2026-05-05 13:09 57.37193 87.41519 36960 ft 508 kts 113°
2026-05-05 13:09 57.34339 87.53486 36935 ft 507 kts 113°
2026-05-05 13:10 57.31475 87.65452 36960 ft 508 kts 112°
2026-05-05 13:10 57.28629 87.77328 36960 ft 508 kts 113°
2026-05-05 13:11 57.25744 87.89252 36966 ft 508 kts 113°
2026-05-05 13:11 57.22855 88.01162 36963 ft 508 kts 113°
2026-05-05 13:12 57.20451 88.11050 36979 ft 508 kts 113°
2026-05-05 13:12 57.17540 88.22941 37004 ft 508 kts 113°
2026-05-05 13:13 57.14135 88.36704 37001 ft 508 kts 113°
2026-05-05 13:13 57.11670 88.46612 37002 ft 508 kts 113°
2026-05-05 13:14 57.08738 88.58352 36982 ft 508 kts 113°
2026-05-05 13:14 57.05786 88.70170 36981 ft 509 kts 113°
2026-05-05 13:15 57.02817 88.81964 36990 ft 509 kts 114°
2026-05-05 13:15 56.99824 88.93748 37025 ft 509 kts 114°
2026-05-05 13:16 56.96817 89.05524 37025 ft 509 kts 114°
2026-05-05 13:16 56.93805 89.17268 37037 ft 509 kts 114°
2026-05-05 13:17 56.90797 89.28999 37030 ft 509 kts 114°
2026-05-05 13:17 56.87764 89.40685 37037 ft 509 kts 114°
2026-05-05 13:18 56.84732 89.52290 37031 ft 508 kts 114°
2026-05-05 13:18 56.81680 89.63969 37016 ft 509 kts 114°
2026-05-05 13:19 56.78622 89.75640 37025 ft 510 kts 114°
2026-05-05 13:19 56.75556 89.87229 37035 ft 510 kts 114°
2026-05-05 13:20 56.72456 89.98858 37055 ft 510 kts 114°
2026-05-05 13:20 56.69355 90.10482 37057 ft 510 kts 114°
2026-05-05 13:21 56.66243 90.22077 37055 ft 510 kts 115°
2026-05-05 13:21 56.63112 90.33655 37056 ft 510 kts 115°
2026-05-05 13:22 56.59979 90.45212 37057 ft 510 kts 115°
2026-05-05 13:22 56.56837 90.56730 37060 ft 509 kts 115°
2026-05-05 13:23 56.53694 90.68226 37073 ft 509 kts 115°
2026-05-05 13:23 56.50535 90.79677 37073 ft 508 kts 115°
2026-05-05 13:24 56.47380 90.91116 37069 ft 507 kts 115°
2026-05-05 13:24 56.44215 91.02503 37063 ft 507 kts 115°
2026-05-05 13:25 56.41052 91.13799 37054 ft 507 kts 116°
2026-05-05 13:25 56.37858 91.25146 37069 ft 506 kts 116°
2026-05-05 13:26 56.34665 91.36456 37062 ft 506 kts 116°
2026-05-05 13:26 56.31474 91.47748 37057 ft 506 kts 116°
2026-05-05 13:27 56.28263 91.59014 37025 ft 506 kts 116°
2026-05-05 13:27 56.25032 91.70278 37029 ft 506 kts 116°
2026-05-05 13:28 56.21791 91.81547 37054 ft 507 kts 116°
2026-05-05 13:28 56.18546 91.92790 37052 ft 506 kts 116°
2026-05-05 13:29 56.15309 92.03922 37050 ft 507 kts 116°
2026-05-05 13:29 56.12019 92.15189 37049 ft 507 kts 116°
2026-05-05 13:30 56.08757 92.26299 37048 ft 507 kts 116°
2026-05-05 13:30 56.05464 92.37458 37074 ft 506 kts 117°
2026-05-05 13:31 56.02169 92.48565 37058 ft 505 kts 117°
2026-05-05 13:31 55.98870 92.59669 37036 ft 506 kts 116°
2026-05-05 13:32 55.95567 92.70765 37040 ft 507 kts 117°
2026-05-05 13:32 55.92236 92.81856 37062 ft 507 kts 117°
2026-05-05 13:33 55.88894 92.92938 37086 ft 507 kts 117°
2026-05-05 13:33 55.85570 93.03923 37083 ft 506 kts 117°
2026-05-05 13:34 55.82221 93.14949 37089 ft 506 kts 117°
2026-05-05 13:34 55.78866 93.25962 37100 ft 506 kts 117°
2026-05-05 13:35 55.75506 93.36948 37109 ft 506 kts 117°
2026-05-05 13:35 55.72102 93.47885 37089 ft 506 kts 117°
2026-05-05 13:36 55.68644 93.58750 37093 ft 505 kts 118°
2026-05-05 13:36 55.65165 93.69586 37097 ft 506 kts 118°
2026-05-05 13:37 55.61705 93.80379 37109 ft 506 kts 118°
2026-05-05 13:37 55.58233 93.91184 37133 ft 505 kts 117°
2026-05-05 13:38 55.54751 94.01979 37122 ft 504 kts 117°
2026-05-05 13:38 55.51274 94.12724 37123 ft 504 kts 117°
2026-05-05 13:39 55.47791 94.23448 37129 ft 503 kts 118°
2026-05-05 13:39 55.44309 94.34056 37106 ft 503 kts 118°
2026-05-05 13:40 55.40789 94.44714 37126 ft 503 kts 118°
2026-05-05 13:40 55.37284 94.55360 37134 ft 503 kts 117°
2026-05-05 13:41 55.33786 94.65992 37137 ft 502 kts 117°
2026-05-05 13:41 55.30267 94.76594 37135 ft 502 kts 118°
2026-05-05 13:42 55.27147 94.87403 37137 ft 496 kts 105°
2026-05-05 13:42 55.25740 94.99093 37135 ft 488 kts 92°
2026-05-05 13:43 55.24928 95.10924 37137 ft 489 kts 92°
2026-05-05 13:43 55.24084 95.22746 37138 ft 489 kts 93°
2026-05-05 13:44 55.23213 95.34609 37143 ft 490 kts 93°
2026-05-05 13:44 55.22340 95.46437 37145 ft 490 kts 93°
2026-05-05 13:45 55.21461 95.58262 37165 ft 490 kts 93°
2026-05-05 13:45 55.20565 95.70083 37161 ft 489 kts 93°
2026-05-05 13:46 55.19661 95.81807 37159 ft 489 kts 93°
2026-05-05 13:46 55.18748 95.93592 37160 ft 489 kts 93°
2026-05-05 13:47 55.17834 96.05371 37198 ft 489 kts 93°
2026-05-05 13:47 55.16904 96.17116 37176 ft 487 kts 94°
2026-05-05 13:48 55.15961 96.28840 37171 ft 486 kts 94°
2026-05-05 13:48 55.15006 96.40548 37180 ft 486 kts 94°
2026-05-05 13:49 55.14047 96.52241 37177 ft 486 kts 94°
2026-05-05 13:49 55.13072 96.63924 37208 ft 486 kts 94°
2026-05-05 13:50 55.12081 96.75602 37199 ft 485 kts 94°
2026-05-05 13:50 55.11083 96.87254 37200 ft 485 kts 94°
2026-05-05 13:51 55.10078 96.98827 37194 ft 485 kts 94°
2026-05-05 13:51 55.09050 97.10475 37198 ft 484 kts 94°
2026-05-05 13:52 55.07985 97.22085 37217 ft 484 kts 95°
2026-05-05 13:52 55.06875 97.33699 37211 ft 484 kts 95°
2026-05-05 13:53 55.05749 97.45278 37205 ft 484 kts 95°
2026-05-05 13:53 55.04616 97.56864 37212 ft 484 kts 95°
2026-05-05 13:54 55.03474 97.68434 37249 ft 484 kts 96°
2026-05-05 13:54 55.02333 97.79939 37235 ft 484 kts 96°
2026-05-05 13:55 55.01179 97.91474 37226 ft 483 kts 96°
2026-05-05 13:55 55.00019 98.02992 37210 ft 483 kts 95°
2026-05-05 13:56 54.98840 98.14508 37210 ft 483 kts 96°
2026-05-05 13:56 54.97649 98.26030 37240 ft 484 kts 96°
2026-05-05 13:57 54.96445 98.37556 37226 ft 484 kts 96°
2026-05-05 13:57 54.95224 98.49098 37235 ft 484 kts 96°
2026-05-05 13:58 54.93997 98.60614 37226 ft 484 kts 96°
2026-05-05 13:58 54.92971 98.70171 37224 ft 484 kts 96°
2026-05-05 13:59 54.91117 98.87414 37239 ft 483 kts 97°
2026-05-05 14:00 54.89218 99.04623 37235 ft 483 kts 97°
2026-05-05 14:00 54.87886 99.16051 37235 ft 483 kts 98°
2026-05-05 14:01 54.86478 99.27386 37268 ft 483 kts 99°
2026-05-05 14:01 54.85066 99.38779 37261 ft 482 kts 99°
2026-05-05 14:02 54.83662 99.50131 37251 ft 481 kts 99°
2026-05-05 14:02 54.82261 99.61465 37251 ft 481 kts 99°
2026-05-05 14:03 54.80833 99.72794 37247 ft 481 kts 99°
2026-05-05 14:03 54.79396 99.84103 37269 ft 480 kts 99°
2026-05-05 14:04 54.77953 99.95408 37263 ft 480 kts 99°
2026-05-05 14:04 54.76493 100.06708 37262 ft 479 kts 99°
2026-05-05 14:05 54.75040 100.17966 37256 ft 478 kts 99°
2026-05-05 14:05 54.73579 100.29136 37259 ft 478 kts 100°
2026-05-05 14:06 54.72100 100.40346 37258 ft 478 kts 100°
2026-05-05 14:06 54.70612 100.51563 37255 ft 478 kts 100°
2026-05-05 14:07 54.69112 100.62742 37249 ft 478 kts 100°
2026-05-05 14:07 54.67599 100.73935 37250 ft 478 kts 100°
2026-05-05 14:08 54.66089 100.85030 37276 ft 477 kts 100°
2026-05-05 14:08 54.64567 100.96187 37274 ft 477 kts 100°
2026-05-05 14:09 54.63033 101.07314 37262 ft 476 kts 101°
2026-05-05 14:09 54.61485 101.18425 37266 ft 476 kts 101°
2026-05-05 14:10 54.59929 101.29530 37274 ft 476 kts 101°
2026-05-05 14:10 54.58368 101.40630 37295 ft 476 kts 101°
2026-05-05 14:11 54.56789 101.51731 37281 ft 476 kts 101°
2026-05-05 14:11 54.55202 101.62811 37279 ft 475 kts 101°
2026-05-05 14:12 54.53618 101.73790 37281 ft 475 kts 101°
2026-05-05 14:12 54.52016 101.84833 37275 ft 475 kts 101°
2026-05-05 14:13 54.50405 101.95855 37289 ft 475 kts 102°
2026-05-05 14:13 54.48776 102.06874 37282 ft 475 kts 102°
2026-05-05 14:14 54.47140 102.17885 37282 ft 475 kts 102°
2026-05-05 14:14 54.45497 102.28889 37279 ft 475 kts 102°
2026-05-05 14:15 54.43847 102.39874 37299 ft 475 kts 102°
2026-05-05 14:15 54.42193 102.50861 37296 ft 475 kts 102°
2026-05-05 14:16 54.40538 102.61751 37292 ft 474 kts 102°
2026-05-05 14:16 54.38870 102.72693 37295 ft 474 kts 102°
2026-05-05 14:17 54.37179 102.83636 37289 ft 474 kts 102°
2026-05-05 14:17 54.35500 102.94577 37310 ft 474 kts 102°
2026-05-05 14:18 54.33828 103.05496 37299 ft 473 kts 102°
2026-05-05 14:18 54.31395 103.15973 37293 ft 478 kts 121°
2026-05-05 14:19 54.29374 103.20493 37288 ft 480 kts 132°
2026-05-05 14:19 54.26882 103.24302 37276 ft 481 kts 143°
2026-05-05 14:19 54.24019 103.27270 37263 ft 483 kts 154°
2026-05-05 14:19 54.20935 103.29538 37263 ft 483 kts 157°
2026-05-05 14:20 54.14766 103.33932 37281 ft 484 kts 156°
2026-05-05 14:20 54.08531 103.38361 37280 ft 485 kts 157°
2026-05-05 14:21 54.02292 103.42784 37274 ft 485 kts 157°
2026-05-05 14:21 53.96056 103.47193 36992 ft 486 kts 157°
2026-05-05 14:22 53.92931 103.49400 36379 ft 486 kts 157°
2026-05-05 14:22 53.89809 103.51601 35776 ft 484 kts 156°
2026-05-05 14:22 53.86705 103.53787 35178 ft 482 kts 156°
2026-05-05 14:22 53.83613 103.55965 34598 ft 481 kts 156°
2026-05-05 14:23 53.80532 103.58133 33972 ft 479 kts 156°
2026-05-05 14:23 53.77494 103.60259 33294 ft 477 kts 156°
2026-05-05 14:23 53.74431 103.62395 32624 ft 475 kts 155°
2026-05-05 14:23 53.71379 103.64522 31973 ft 474 kts 155°
2026-05-05 14:24 53.68332 103.66641 31351 ft 473 kts 155°
2026-05-05 14:24 53.65293 103.68750 30730 ft 472 kts 154°
2026-05-05 14:24 53.62263 103.70854 30077 ft 470 kts 154°
2026-05-05 14:24 53.59242 103.72948 29348 ft 469 kts 154°
2026-05-05 14:25 53.56223 103.75041 28636 ft 469 kts 154°
2026-05-05 14:25 53.53199 103.77136 27934 ft 469 kts 154°
2026-05-05 14:25 53.50180 103.79228 27258 ft 469 kts 154°
2026-05-05 14:25 53.47157 103.81330 26600 ft 470 kts 154°
2026-05-05 14:26 53.44137 103.83423 25968 ft 470 kts 154°
2026-05-05 14:26 53.41105 103.85515 25335 ft 471 kts 154°
2026-05-05 14:26 53.38130 103.87643 24724 ft 469 kts 150°
2026-05-05 14:26 53.35282 103.90221 24118 ft 463 kts 147°
2026-05-05 14:27 53.32484 103.92853 23462 ft 458 kts 147°
2026-05-05 14:27 53.29714 103.95449 22757 ft 455 kts 147°
2026-05-05 14:27 53.26957 103.98028 22084 ft 452 kts 147°
2026-05-05 14:27 53.24219 104.00581 21410 ft 449 kts 147°
2026-05-05 14:28 53.21494 104.03120 20756 ft 447 kts 147°
2026-05-05 14:28 53.18784 104.05644 20107 ft 445 kts 148°
2026-05-05 14:28 53.16085 104.08156 19474 ft 443 kts 148°
2026-05-05 14:28 53.13398 104.10651 18853 ft 441 kts 148°
2026-05-05 14:29 53.10724 104.13131 18204 ft 439 kts 148°
2026-05-05 14:29 53.08053 104.15598 17507 ft 435 kts 149°
2026-05-05 14:29 53.05411 104.18008 16828 ft 431 kts 149°
2026-05-05 14:29 53.02791 104.20378 16161 ft 427 kts 150°
2026-05-05 14:30 53.00191 104.22720 15503 ft 422 kts 150°
2026-05-05 14:30 52.97652 104.25006 14868 ft 418 kts 150°
2026-05-05 14:30 52.95105 104.27300 14239 ft 414 kts 151°
2026-05-05 14:30 52.92584 104.29570 13563 ft 409 kts 151°
2026-05-05 14:31 52.90102 104.31807 12887 ft 403 kts 151°
2026-05-05 14:31 52.87657 104.34006 12206 ft 397 kts 151°
2026-05-05 14:31 52.85248 104.36168 11554 ft 391 kts 151°
2026-05-05 14:31 52.82876 104.38293 11016 ft 383 kts 151°
2026-05-05 14:32 52.80588 104.40340 10880 ft 364 kts 151°
2026-05-05 14:32 52.78409 104.42285 10745 ft 347 kts 151°
2026-05-05 14:32 52.76334 104.44133 10622 ft 332 kts 151°
2026-05-05 14:32 52.74324 104.45831 10501 ft 318 kts 156°
2026-05-05 14:33 52.72327 104.47226 10359 ft 306 kts 157°
2026-05-05 14:33 52.70405 104.48572 10232 ft 295 kts 157°
2026-05-05 14:33 52.68534 104.49883 9916 ft 291 kts 157°
2026-05-05 14:33 52.66670 104.51186 9482 ft 290 kts 157°
2026-05-05 14:34 52.64806 104.52485 9038 ft 290 kts 157°
2026-05-05 14:34 52.62978 104.53761 8606 ft 290 kts 157°
2026-05-05 14:34 52.61128 104.55050 8203 ft 288 kts 157°
2026-05-05 14:34 52.59307 104.56315 8055 ft 283 kts 157°
2026-05-05 14:35 52.57492 104.57575 7860 ft 284 kts 157°
2026-05-05 14:35 52.55678 104.58835 7566 ft 281 kts 157°
2026-05-05 14:35 52.53872 104.60089 7394 ft 281 kts 157°
2026-05-05 14:35 52.52068 104.61342 7239 ft 281 kts 157°
2026-05-05 14:36 52.50263 104.62595 7087 ft 281 kts 157°
2026-05-05 14:36 52.48460 104.63845 6951 ft 281 kts 157°
2026-05-05 14:36 52.46657 104.65091 6794 ft 280 kts 157°
2026-05-05 14:36 52.44862 104.66328 6643 ft 280 kts 157°
2026-05-05 14:37 52.43067 104.67563 6484 ft 280 kts 157°
2026-05-05 14:37 52.41275 104.68796 6334 ft 279 kts 157°
2026-05-05 14:37 52.39485 104.70025 6181 ft 279 kts 157°
2026-05-05 14:37 52.37698 104.71252 6030 ft 278 kts 157°
2026-05-05 14:38 52.35910 104.72480 5883 ft 278 kts 157°
2026-05-05 14:38 52.34129 104.73703 5735 ft 277 kts 157°
2026-05-05 14:38 52.32350 104.74924 5578 ft 277 kts 157°
2026-05-05 14:38 52.30570 104.76147 5436 ft 278 kts 157°
2026-05-05 14:39 52.28723 104.77006 5287 ft 273 kts 176°
2026-05-05 14:39 52.26921 104.76772 5178 ft 256 kts 198°
2026-05-05 14:39 52.25359 104.75605 5062 ft 240 kts 218°
2026-05-05 14:39 52.24139 104.73852 4958 ft 229 kts 227°
2026-05-05 14:40 52.23006 104.72089 4840 ft 222 kts 227°
2026-05-05 14:40 52.21905 104.70389 4742 ft 214 kts 227°
2026-05-05 14:40 52.20847 104.68742 4651 ft 206 kts 231°
2026-05-05 14:40 52.20152 104.66781 4560 ft 197 kts 258°
2026-05-05 14:41 52.20095 104.64609 4408 ft 190 kts 284°
2026-05-05 14:41 52.20533 104.62597 4245 ft 188 kts 295°
2026-05-05 14:41 52.21046 104.60645 4090 ft 187 kts 296°
2026-05-05 14:41 52.21565 104.58707 3941 ft 186 kts 296°
2026-05-05 14:42 52.22083 104.56775 3791 ft 186 kts 296°
2026-05-05 14:42 52.22590 104.54886 3682 ft 175 kts 296°
2026-05-05 14:42 52.23066 104.53107 3493 ft 167 kts 296°
2026-05-05 14:42 52.23511 104.51448 3259 ft 151 kts 296°
2026-05-05 14:43 52.23906 104.49968 3036 ft 136 kts 296°
2026-05-05 14:43 52.24274 104.48593 2821 ft 129 kts 296°
2026-05-05 14:43 52.24626 104.47285 2604 ft 128 kts 296°
2026-05-05 14:43 52.24987 104.45942 2382 ft 130 kts 295°
2026-05-05 14:44 52.25352 104.44573 2208 ft 132 kts 294°
2026-05-05 14:44 52.25722 104.43198 2044 ft 133 kts 294°
2026-05-05 14:44 52.26088 104.41814 1815 ft 133 kts 294°
2026-05-05 14:44 52.26457 104.40449 1661 ft 124 kts 294°
2026-05-05 14:45 52.26750 104.39335 1651 ft 84 kts 293°
2026-05-05 14:45 52.26921 104.38686 1650 ft 49 kts 294°
2026-05-05 14:45 52.27007 104.38365 1650 ft 44 kts 293°
2026-05-05 14:45 52.27104 104.38004 1667 ft 21 kts 294°
2026-05-05 14:46 52.27151 104.37828 1654 ft 16 kts 294°
2026-05-05 14:46 52.27186 104.37683 1653 ft 12 kts 283°
2026-05-05 14:46 52.27164 104.37592 1652 ft 8 kts 236°
2026-05-05 14:46 52.27132 104.37519 1652 ft 8 kts 233°
2026-05-05 14:47 52.27101 104.37450 1651 ft 7 kts 234°
2026-05-05 14:47 52.27074 104.37390 1651 ft 6 kts 234°
2026-05-05 14:47 52.27052 104.37338 1651 ft 6 kts 234°
2026-05-05 14:47 52.27028 104.37284 1651 ft 6 kts 234°
2026-05-05 14:48 52.27000 104.37220 1651 ft 7 kts 234°
2026-05-05 14:48 52.26987 104.37138 1651 ft 9 kts 281°
2026-05-05 14:48 52.27011 104.37035 1651 ft 10 kts 290°
2026-05-05 14:48 52.27037 104.36918 1651 ft 12 kts 290°
2026-05-05 14:49 52.27067 104.36782 1651 ft 14 kts 290°
2026-05-05 14:49 52.27101 104.36636 1651 ft 11 kts 291°
2026-05-05 14:49 52.27120 104.36552 1651 ft 7 kts 291°
2026-05-05 14:49 52.27130 104.36512 1651 ft 3 kts 291°
2026-05-05 14:50 52.27136 104.36486 1651 ft 3 kts 290°
2026-05-05 14:50 52.27152 104.36418 1651 ft 10 kts 290°
2026-05-05 14:50 52.27181 104.36279 1651 ft 15 kts 284°
2026-05-05 14:50 52.27182 104.36101 1651 ft 17 kts 267°
2026-05-05 14:51 52.27176 104.35900 1651 ft 14 kts 267°
2026-05-05 14:51 52.27152 104.35762 1651 ft 13 kts 258°
2026-05-05 14:51 52.27147 104.35611 1651 ft 11 kts 267°
2026-05-05 14:51 52.27143 104.35494 1651 ft 9 kts 260°
2026-05-05 14:52 52.27123 104.35399 1651 ft 8 kts 261°
2026-05-05 14:52 52.27124 104.35322 1651 ft 5 kts 301°
2026-05-05 14:52 52.27152 104.35313 1651 ft 3 kts
2026-05-05 14:52 52.27162 104.35335 1651 ft 2 kts 67°
2026-05-05 14:53 52.27163 104.35364 1651 ft 4 kts 88°
2026-05-05 14:53 52.27165 104.35390 1651 ft 0 kts 86°